Location: Gniazdowice
(50.2124°N, 20.2673°E)
Time: 00:40:14
(UTC+00:00)

SJ 16-02 - Pass Details

Date: 23 May 2024
Orbit: 594 x 606 km, 75.0° (Epoch: 18 June)

Event Time Altitude Azimuth Distance (km) Brightness Sun altitude
Exits shadow 01:40:36 10° 214° (SW) 1,906 3.2 -8.2°
Maximum altitude 01:44:48 61° 295° (WNW) 682 1.5 -7.8°
Drops below altitude 10° 01:49:05 10° 16° (NNE) 1,941 5.0 -7.3°
Sets 01:51:21 0° 20° (NNE) 2,848 6.1 -7.0°
